Location: Castelbiague
(43.0361°N, 0.9246°E)
Time: 04:20:15
(UTC+00:00)

Cosmos 2322 - Visible Passes

Search period start: 17 October 2021 00:00
Search period end: 27 October 2021 00:00
Orbit: 840 x 855 km, 71.0° (Epoch: 16 October)

Date Brightness Start Highest point End Pass type
(mag) Time Alt. Az. Time Alt. Az. Time Alt. Az.
17 Oct 5.7 05:24:28 10° N 05:29:21 28° NE 05:34:10 10° ESE visible
18 Oct 5.7 05:11:11 10° N 05:16:02 27° NE 05:20:50 10° ESE visible
19 Oct 5.7 04:57:55 10° N 05:02:43 27° NE 05:07:29 10° ESE visible
20 Oct 5.7 04:44:38 10° N 04:49:25 27° NE 04:54:09 10° ESE visible
21 Oct 5.7 04:31:21 10° N 04:36:06 26° NE 04:40:47 10° ESE visible
22 Oct 5.7 04:18:04 10° N 04:22:47 26° NE 04:27:27 10° ESE visible
22 Oct 5.7 19:11:04 10° S 19:11:48 14° S 19:11:48 14° S visible
23 Oct 5.8 04:04:48 10° N 04:09:28 25° NE 04:14:06 10° ESE visible
23 Oct 3.9 05:48:27 10° NNW 05:53:59 55° WSW 05:59:29 10° S visible
23 Oct 4.9 18:57:47 10° S 19:00:36 26° SSE 19:00:36 26° SSE visible
23 Oct 6.3 20:42:08 10° WSW 20:42:39 12° WSW 20:42:39 12° WSW visible
24 Oct 5.8 03:51:31 10° N 03:56:09 25° NE 04:00:46 10° ESE visible
24 Oct 3.8 05:35:08 10° NNW 05:40:42 56° WSW 05:46:12 10° S visible
24 Oct 4.2 18:44:32 10° S 18:49:21 38° ESE 18:49:21 38° ESE visible
24 Oct 5.7 20:28:48 10° WSW 20:31:24 23° W 20:31:24 23° W visible
25 Oct 5.8 03:38:14 10° N 03:42:51 24° NE 03:47:25 10° ESE visible
25 Oct 3.8 05:21:49 10° NNW 05:27:24 57° WSW 05:32:54 10° S visible
25 Oct 4.1 18:31:15 10° S 18:36:28 38° ESE 18:38:00 32° ENE visible
25 Oct 5.2 20:15:28 10° WSW 20:20:02 34° WNW 20:20:02 34° WNW visible
26 Oct 5.8 03:24:57 10° N 03:29:32 24° NE 03:34:03 10° ESE visible
26 Oct 3.7 05:08:31 10° NNW 05:14:06 58° WSW 05:19:38 10° S visible
26 Oct 4.2 18:18:00 10° S 18:23:11 37° ESE 18:26:27 20° NE visible
26 Oct 5.1 20:02:08 10° WSW 20:07:20 35° NW 20:08:28 32° NNW visible
